This is the latest recevied weather packets stored in our database for station/object KD8UYA. If no packets are shown the sender has not sent any weather packets the latest 10 day(s).
| Time | Temp. | Humidity | Pressure | Rain* | Wind** | Luminosity | Snow |
|---|---|---|---|---|---|---|---|
| 1777976105 | 17.22° C | 72% | 1002.1 hPa | 0 mm | - | - | - |
| 1777975262 | 17.22° C | 71% | 1001.8 hPa | 0 mm | - | - | - |
| 1777973455 | 18.33° C | 68% | 1001.3 hPa | 0 mm | - | - | - |
| 1777972554 | 18.33° C | 67% | 1001.2 hPa | 0 mm | - | - | - |
| 1777971664 | 18.33° C | 67% | 1000.9 hPa | 0 mm | - | - | - |
| 1777970754 | 18.33° C | 67% | 1001.1 hPa | 0 mm | - | - | - |
| 1777969857 | 18.33° C | 67% | 1000.9 hPa | 0 mm | - | - | - |
| 1777968949 | 17.78° C | 70% | 1001.2 hPa | 0 mm | - | - | - |
| 1777968053 | 17.78° C | 71% | 1000.9 hPa | 0 mm | - | - | - |
| 1777967146 | 17.78° C | 73% | 1000.8 hPa | 0 mm | - | - | - |
| 1777966245 | 17.78° C | 72% | 1000.8 hPa | 0 mm | - | - | - |
| 1777965344 | 18.33° C | 70% | 1000.7 hPa | 0 mm | - | - | - |
| 1777964445 | 18.33° C | 70% | 1000.7 hPa | 0 mm | - | - | - |
| 1777963541 | 18.33° C | 70% | 1000.8 hPa | 0 mm | - | - | - |
| 1777962641 | 17.78° C | 71% | 1001 hPa | 0 mm | - | - | - |
| 1777961743 | 17.78° C | 71% | 1001.1 hPa | 0 mm | - | - | - |
| 1777960836 | 17.78° C | 71% | 1001.1 hPa | 0 mm | - | - | - |
| 1777959938 | 17.78° C | 72% | 1001.4 hPa | 0 mm | - | - | - |
| 1777959041 | 17.78° C | 72% | 1001.6 hPa | 0 mm | - | - | - |
| 1777958134 | 17.78° C | 72% | 1001.8 hPa | 0 mm | - | - | - |
| 1777956334 | 17.78° C | 71% | 1001.9 hPa | 0 mm | - | - | - |
| 1777955432 | 17.78° C | 72% | 1002 hPa | 0 mm | - | - | - |
| 1777954525 | 17.78° C | 72% | 1002.1 hPa | 0 mm | - | - | - |
| 1777953623 | 17.78° C | 72% | 1002.1 hPa | 0 mm | - | - | - |
| 1777943719 | 19.44° C | 62% | 1002.4 hPa | 0 mm | - | - | - |
* Rain latest hour (hover to see other rain measurements)
** Current wind speed in m/s (hover to see current wind gust speed)